QPF
0.00 0.00 0.01 0.00 0.01 0.00 0.00 0.01 0.00 0.00 0.00 0.00 0.00 0.01 0.02 0.00 0.00 0.00 0.00 0.00 0.00 0.00 0.00 0.00 0.00 0.00 0.00 0.00 0.00 0.00 0.00 0.00 0.00 0.00 0.01 0.03 0.07 0.02 0.00 0.00 0.01 0.00 0.00
0.00 0.00 0.01 0.01 0.00 0.00 0.00 0.02 0.00 0.00 0.00 0.00 0.00 0.00 0.00 0.00 0.00 0.00 0.00 0.00 0.00 0.00 0.00 0.00 0.00 0.00 0.00 0.00 0.00 0.00 0.00 0.00 0.00 0.00 0.00 0.01 0.02 0.00 0.00 0.00 0.01 0.01 0.01
0.00 0.00 0.00 0.01 0.02 0.01 0.01 0.01 0.00 0.00 0.00 0.00 0.01 0.00 0.00 0.00 0.00 0.00 0.00 0.00 0.00 0.00 0.00 0.00 0.00 0.01 0.00 0.00 0.00 0.00 0.00 0.00 0.00 0.00 0.00 0.00 0.00 0.00 0.01 0.04 0.04 0.02 0.02
0.00 0.00 0.00 0.00 0.01 0.05 0.04 0.01 0.01 0.02 0.01 0.00 0.01 0.00 0.00 0.00 0.00 0.00 0.00 0.00 0.00 0.00 0.00 0.00 0.00 0.00 0.01 0.01 0.00 0.00 0.00 0.00 0.00 0.00 0.00 0.00 0.01 0.06 0.09 0.06 0.02 0.00 0.00
0.00 0.00 0.00 0.00 0.00 0.00 0.06 0.02 0.00 0.04 0.04 0.02 0.01 0.00 0.00 0.00 0.00 0.00 0.00 0.01 0.00 0.00 0.00 0.00 0.00 0.00 0.01 0.01 0.00 0.01 0.00 0.00 0.00 0.00 0.00 0.02 0.08 0.10 0.03 0.00 0.00 0.00 0.00
0.00 0.00 0.00 0.00 0.00 0.00 0.01 0.05 0.04 0.02 0.03 0.04 0.01 0.01 0.00 0.00 0.00 0.01 0.04 0.05 0.04 0.00 0.00 0.00 0.00 0.00 0.00 0.01 0.00 0.00 0.00 0.00 0.00 0.00 0.02 0.04 0.02 0.03 0.00 0.00 0.00 0.00 0.00
0.00 0.00 0.00 0.00 0.00 0.01 0.02 0.03 0.06 0.05 0.03 0.04 0.02 0.00 0.00 0.00 0.01 0.03 0.04 0.08 0.08 0.01 0.00 0.00 0.00 0.00 0.00 0.01 0.00 0.00 0.00 0.00 0.01 0.00 0.00 0.00 0.02 0.01 0.00 0.00 0.00 0.00 0.00
0.00 0.00 0.00 0.00 0.00 0.00 0.01 0.01 0.03 0.05 0.05 0.03 0.04 0.03 0.01 0.01 0.04 0.03 0.01 0.05 0.05 0.02 0.00 0.00 0.00 0.00 0.00 0.01 0.00 0.00 0.00 0.00 0.00 0.00 0.00 0.00 0.00 0.00 0.00 0.00 0.00 0.00 0.00
0.00 0.00 0.00 0.00 0.00 0.00 0.00 0.01 0.01 0.03 0.05 0.04 0.02 0.04 0.03 0.02 0.09 0.06 0.01 0.02 0.01 0.00 0.00 0.00 0.00 0.00 0.00 0.00 0.00 0.00 0.00 0.00 0.00 0.00 0.00 0.00 0.00 0.00 0.00 0.00 0.00 0.00 0.00
0.00 0.00 0.00 0.00 0.00 0.00 0.00 0.00 0.00 0.01 0.02 0.04 0.02 0.01 0.00 0.01 0.10 0.20 0.02 0.01 0.01 0.00 0.00 0.00 0.00 0.00 0.00 0.00 0.00 0.00 0.00 0.00 0.00 0.00 0.00 0.00 0.00 0.00 0.00 0.00 0.01 0.01 0.01
0.00 0.00 0.00 0.00 0.00 0.00 0.00 0.00 0.00 0.00 0.01 0.02 0.03 0.02 0.01 0.01 0.04 0.06 0.01 0.00 0.00 0.00 0.00 0.00 0.00 0.00 0.01 0.00 0.00 0.00 0.00 0.00 0.00 0.00 0.00 0.00 0.00 0.00 0.00 0.02 0.01 0.01 0.01
0.00 0.00 0.00 0.00 0.00 0.00 0.00 0.00 0.00 0.00 0.01 0.01 0.01 0.02 0.02 0.03 0.03 0.02 0.00 0.00 0.00 0.00 0.00 0.00 0.00 0.01 0.00 0.00 0.00 0.00 0.00 0.00 0.00 0.00 0.00 0.00 0.00 0.00 0.02 0.02 0.01 0.01 0.01
0.00 0.00 0.00 0.00 0.00 0.00 0.00 0.00 0.00 0.00 0.00 0.05 0.05 0.05 0.05 0.05 0.05 0.03 0.00 0.00 0.00 0.00 0.00 0.00 0.00 0.00 0.00 0.00 0.00 0.00 0.00 0.00 0.00 0.00 0.00 0.00 0.00 0.00 0.03 0.01 0.01 0.01 0.00
0.00 0.00 0.00 0.00 0.00 0.00 0.00 0.00 0.00 0.00 0.00 0.02 0.06 0.08 0.07 0.05 0.06 0.03 0.01 0.00 0.00 0.00 0.00 0.00 0.00 0.00 0.00 0.00 0.00 0.00 0.00 0.00 0.00 0.00 0.00 0.00 0.00 0.01 0.02 0.00 0.01 0.01 0.00
0.00 0.00 0.00 0.00 0.00 0.00 0.00 0.00 0.00 0.00 0.00 0.00 0.02 0.07 0.08 0.07 0.06 0.05 0.02 0.01 0.00 0.00 0.00 0.00 0.00 0.00 0.00 0.00 0.00 0.00 0.00 0.00 0.00 0.00 0.00 0.00 0.01 0.03 0.03 0.00 0.01 0.01 0.00
0.00 0.00 0.00 0.00 0.00 0.00 0.00 0.00 0.00 0.00 0.00 0.00 0.01 0.05 0.07 0.06 0.05 0.05 0.03 0.01 0.00 0.00 0.00 0.00 0.00 0.00 0.00 0.00 0.00 0.00 0.00 0.00 0.00 0.00 0.00 0.00 0.01 0.03 0.01 0.00 0.01 0.01 0.00
0.00 0.00 0.00 0.00 0.00 0.00 0.00 0.00 0.00 0.00 0.00 0.00 0.00 0.02 0.04 0.04 0.02 0.02 0.02 0.01 0.00 0.00 0.00 0.00 0.00 0.00 0.00 0.00 0.00 0.00 0.00 0.00 0.00 0.00 0.00 0.00 0.00 0.00 0.00 0.00 0.00 0.00 0.00
0.00 0.00 0.00 0.00 0.00 0.00 0.00 0.00 0.00 0.00 0.00 0.00 0.00 0.00 0.02 0.02 0.03 0.03 0.01 0.01 0.00 0.00 0.00 0.00 0.00 0.00 0.00 0.00 0.00 0.00 0.00 0.00 0.00 0.00 0.00 0.00 0.00 0.00 0.00 0.00 0.00 0.00 0.00
0.00 0.00 0.00 0.00 0.00 0.00 0.00 0.00 0.00 0.00 0.00 0.00 0.00 0.00 0.00 0.00 0.01 0.02 0.03 0.01 0.00 0.00 0.00 0.00 0.00 0.00 0.00 0.00 0.00 0.00 0.00 0.00 0.00 0.00 0.00 0.00 0.00 0.00 0.00 0.00 0.00 0.00 0.00
0.00 0.00 0.00 0.00 0.00 0.00 0.00 0.00 0.00 0.00 0.00 0.00 0.00 0.00 0.00 0.00 0.00 0.00 0.01 0.01 0.01 0.00 0.00 0.00 0.00 0.00 0.00 0.00 0.00 0.00 0.00 0.00 0.00 0.00 0.00 0.00 0.00 0.00 0.00 0.00 0.00 0.00 0.00
0.00 0.00 0.00 0.00 0.00 0.00 0.00 0.00 0.00 0.00 0.00 0.00 0.00 0.00 0.00 0.00 0.00 0.00 0.00 0.00 0.01 0.00 0.00 0.00 0.00 0.00 0.00 0.00 0.00 0.00 0.00 0.00 0.00 0.00 0.00 0.00 0.00 0.00 0.00 0.00 0.00 0.00 0.00
0.00 0.00 0.00 0.00 0.00 0.00 0.00 0.00 0.00 0.00 0.00 0.00 0.00 0.00 0.00 0.00 0.00 0.00 0.00 0.00 0.01 0.01 0.00 0.00 0.00 0.00 0.00 0.00 0.00 0.00 0.00 0.00 0.00 0.00 0.00 0.00 0.00 0.00 0.00 0.00 0.00 0.00 0.00
0.00 0.00 0.00 0.00 0.00 0.00 0.00 0.00 0.00 0.00 0.00 0.00 0.00 0.00 0.00 0.00 0.00 0.00 0.00 0.00 0.01 0.01 0.00 0.00 0.00 0.00 0.00 0.00 0.00 0.00 0.00 0.00 0.00 0.00 0.00 0.00 0.00 0.00 0.00 0.00 0.00 0.00 0.00
0.00 0.00 0.00 0.00 0.00 0.00 0.00 0.00 0.00 0.00 0.00 0.00 0.00 0.00 0.00 0.00 0.00 0.00 0.00 0.00 0.01 0.01 0.01 0.00 0.00 0.00 0.00 0.00 0.00 0.00 0.00 0.00 0.00 0.00 0.00 0.00 0.00 0.00 0.00 0.00 0.00 0.00 0.00
0.00 0.00 0.00 0.00 0.00 0.00 0.01 0.01 0.00 0.00 0.00 0.00 0.00 0.00 0.01 0.00 0.00 0.00 0.00 0.00 0.02 0.01 0.01 0.01 0.00 0.00 0.00 0.00 0.00 0.00 0.00 0.00 0.00 0.00 0.00 0.00 0.00 0.00 0.00 0.00 0.00 0.00 0.00
0.00 0.00 0.00 0.00 0.00 0.00 0.00 0.02 0.01 0.00 0.00 0.00 0.00 0.00 0.00 0.00 0.00 0.00 0.00 0.00 0.02 0.03 0.02 0.01 0.00 0.00 0.00 0.00 0.00 0.00 0.00 0.00 0.00 0.00 0.00 0.00 0.00 0.00 0.00 0.00 0.00 0.00 0.00
MSLP
1012.01 1011.89 1011.76 1011.91 1012.04 1012.22 1012.38 1012.51 1012.76 1012.86 1012.96 1013.16 1013.24 1013.41 1013.62 1013.91 1013.99 1014.17 1014.40 1014.59 1014.70 1014.78 1014.97 1015.15 1015.29 1015.55 1015.65 1015.80 1015.94 1016.10 1016.18 1016.31 1016.46 1016.67 1016.80 1016.88 1016.89 1017.13 1017.35 1017.53 1017.62 1017.67 1017.62
1011.81 1011.90 1011.94 1011.93 1012.02 1012.24 1012.47 1012.52 1012.78 1013.02 1013.09 1013.26 1013.47 1013.63 1013.83 1014.10 1014.31 1014.44 1014.57 1014.70 1014.90 1014.88 1015.10 1015.35 1015.56 1015.81 1015.97 1016.16 1016.33 1016.47 1016.64 1016.83 1016.95 1017.05 1017.19 1017.29 1017.34 1017.46 1017.68 1017.83 1017.81 1017.82 1017.87
1011.74 1011.84 1011.94 1011.96 1012.15 1012.29 1012.46 1012.62 1012.82 1012.99 1013.27 1013.41 1013.57 1013.77 1013.97 1014.14 1014.33 1014.55 1014.77 1014.85 1014.95 1015.13 1015.23 1015.50 1015.71 1015.99 1016.25 1016.45 1016.65 1016.83 1017.02 1017.18 1017.31 1017.39 1017.48 1017.62 1017.69 1017.76 1017.93 1018.11 1018.06 1018.14 1018.28
1011.69 1011.86 1012.03 1012.13 1012.21 1012.30 1012.56 1012.75 1012.84 1012.98 1013.27 1013.50 1013.68 1013.84 1013.99 1014.20 1014.41 1014.58 1014.79 1014.98 1015.08 1015.29 1015.46 1015.78 1016.01 1016.22 1016.45 1016.74 1016.91 1017.09 1017.28 1017.50 1017.65 1017.75 1017.88 1017.91 1017.91 1017.98 1018.24 1018.34 1018.43 1018.54 1018.54
1012.00 1011.92 1011.98 1012.04 1012.14 1012.29 1012.45 1012.65 1012.84 1013.07 1013.27 1013.54 1013.71 1013.85 1014.04 1014.18 1014.39 1014.62 1014.80 1015.00 1015.25 1015.47 1015.71 1015.99 1016.37 1016.56 1016.72 1016.89 1017.11 1017.34 1017.55 1017.77 1017.94 1018.10 1018.18 1018.26 1018.26 1018.26 1018.43 1018.71 1018.90 1019.04 1019.17
1012.44 1012.25 1012.14 1011.87 1011.94 1012.19 1012.39 1012.54 1012.73 1013.02 1013.25 1013.48 1013.72 1013.80 1014.04 1014.20 1014.34 1014.55 1014.80 1015.03 1015.29 1015.61 1015.89 1016.18 1016.56 1016.81 1016.97 1017.14 1017.36 1017.56 1017.80 1018.05 1018.31 1018.42 1018.46 1018.47 1018.59 1018.62 1018.89 1019.18 1019.31 1019.37 1019.46
1012.50 1012.31 1012.02 1011.91 1011.99 1012.11 1012.23 1012.45 1012.66 1012.87 1013.15 1013.38 1013.53 1013.71 1013.96 1014.15 1014.33 1014.51 1014.82 1015.09 1015.40 1015.71 1016.00 1016.41 1016.70 1017.00 1017.22 1017.41 1017.63 1017.77 1017.96 1018.31 1018.63 1018.81 1018.83 1018.90 1018.93 1019.06 1019.33 1019.50 1019.55 1019.60 1019.68
1012.13 1012.03 1012.08 1012.09 1012.14 1012.12 1012.14 1012.26 1012.49 1012.68 1012.95 1013.16 1013.37 1013.58 1013.74 1013.97 1014.27 1014.60 1014.78 1014.98 1015.38 1015.74 1016.09 1016.47 1016.85 1017.13 1017.40 1017.59 1017.85 1018.12 1018.43 1018.61 1018.89 1019.15 1019.21 1019.19 1019.23 1019.42 1019.66 1019.75 1019.73 1019.80 1019.93
1012.24 1012.02 1011.92 1012.10 1012.15 1012.19 1012.12 1012.07 1012.19 1012.47 1012.73 1012.95 1013.15 1013.44 1013.65 1013.84 1014.15 1014.51 1014.66 1014.92 1015.27 1015.65 1016.00 1016.41 1016.91 1017.29 1017.55 1017.81 1018.03 1018.27 1018.62 1018.84 1019.15 1019.38 1019.48 1019.52 1019.49 1019.63 1019.90 1019.95 1019.92 1020.01 1020.11
1012.41 1012.28 1012.16 1012.05 1012.18 1012.16 1012.20 1012.14 1012.12 1012.15 1012.37 1012.66 1012.98 1013.16 1013.52 1013.77 1014.07 1014.37 1014.60 1015.00 1015.25 1015.56 1015.93 1016.32 1016.85 1017.35 1017.69 1017.98 1018.27 1018.45 1018.84 1019.14 1019.41 1019.57 1019.65 1019.63 1019.68 1019.78 1020.03 1020.15 1020.15 1020.12 1020.27
1012.57 1012.42 1012.37 1012.23 1012.16 1012.18 1012.07 1012.11 1012.15 1012.09 1012.10 1012.36 1012.69 1012.96 1013.24 1013.65 1013.90 1014.19 1014.50 1014.95 1015.36 1015.64 1016.01 1016.31 1016.76 1017.30 1017.81 1018.19 1018.52 1018.71 1019.04 1019.35 1019.50 1019.69 1019.71 1019.69 1019.91 1019.98 1020.20 1020.23 1020.25 1020.46 1020.52
1012.52 1012.37 1012.32 1012.33 1012.22 1012.19 1011.98 1012.09 1012.13 1012.11 1012.16 1012.22 1012.42 1012.73 1013.05 1013.41 1013.76 1014.16 1014.44 1014.96 1015.36 1015.66 1016.00 1016.35 1016.59 1017.24 1017.88 1018.48 1018.77 1018.97 1019.26 1019.43 1019.55 1019.71 1019.74 1019.69 1019.99 1020.13 1020.32 1020.44 1020.68 1020.79 1020.92
1012.23 1012.19 1012.08 1012.11 1012.09 1012.12 1012.06 1012.08 1012.19 1012.17 1012.13 1012.23 1012.29 1012.43 1012.80 1013.24 1013.66 1014.01 1014.33 1014.83 1015.39 1015.73 1015.94 1016.31 1016.64 1017.21 1017.99 1018.58 1019.02 1019.18 1019.37 1019.50 1019.58 1019.78 1019.89 1019.90 1020.17 1020.29 1020.42 1020.74 1020.89 1021.13 1021.33
1012.25 1011.97 1011.60 1011.87 1012.01 1012.11 1012.11 1012.06 1012.10 1012.07 1011.93 1012.05 1012.25 1012.29 1012.69 1013.12 1013.47 1013.84 1014.19 1014.62 1015.26 1015.61 1016.15 1016.11 1016.69 1017.18 1017.75 1018.47 1018.83 1019.23 1019.38 1019.63 1019.77 1020.05 1020.01 1020.16 1020.39 1020.48 1020.62 1020.97 1021.23 1021.49 1021.75
1012.14 1011.89 1011.45 1011.57 1011.81 1012.06 1012.24 1012.11 1012.16 1012.18 1012.03 1012.03 1012.03 1012.07 1012.31 1012.70 1013.24 1013.65 1013.88 1014.34 1015.04 1015.49 1016.02 1016.35 1016.54 1017.14 1017.62 1018.31 1018.84 1019.12 1019.49 1019.72 1020.08 1020.21 1020.14 1020.39 1020.58 1020.66 1020.77 1021.05 1021.54 1021.78 1022.11
1011.75 1011.55 1011.19 1011.32 1011.54 1011.92 1012.19 1012.21 1012.31 1012.32 1012.19 1012.17 1012.27 1012.33 1012.49 1012.53 1012.87 1013.22 1013.65 1014.07 1014.78 1015.19 1015.61 1016.24 1016.22 1016.79 1017.63 1018.20 1018.78 1019.20 1019.60 1019.85 1020.28 1020.33 1020.38 1020.54 1020.83 1020.93 1020.98 1021.30 1021.58 1021.93 1022.24
1011.48 1011.26 1011.08 1011.16 1011.44 1011.74 1012.00 1012.09 1012.22 1012.33 1012.35 1012.37 1012.44 1012.66 1012.61 1012.93 1012.89 1013.12 1013.37 1013.68 1014.19 1014.79 1015.33 1016.06 1016.49 1016.87 1017.79 1018.29 1018.85 1019.24 1019.63 1020.06 1020.49 1020.57 1020.63 1020.89 1021.16 1021.34 1021.36 1021.69 1021.83 1022.15 1022.46
1011.14 1011.06 1010.92 1010.99 1011.06 1011.37 1011.62 1011.82 1012.05 1012.21 1012.31 1012.41 1012.43 1012.63 1012.81 1012.83 1012.98 1012.77 1013.07 1013.42 1013.70 1014.26 1014.96 1015.62 1016.57 1017.05 1017.66 1018.23 1018.84 1019.32 1019.73 1020.18 1020.46 1020.85 1020.76 1021.05 1021.41 1021.54 1021.78 1021.99 1022.15 1022.33 1022.55
1010.87 1010.82 1010.66 1010.67 1010.79 1011.01 1011.46 1011.79 1012.05 1012.15 1012.28 1012.12 1012.19 1012.34 1012.49 1012.42 1012.56 1012.99 1013.00 1012.96 1013.21 1013.51 1014.43 1015.24 1016.34 1016.81 1017.49 1018.16 1018.80 1019.41 1019.91 1020.39 1020.70 1021.07 1021.17 1021.35 1021.61 1021.78 1022.08 1022.26 1022.48 1022.57 1022.75
1010.60 1010.53 1010.54 1010.52 1010.65 1010.98 1011.42 1011.78 1012.07 1012.28 1012.19 1011.93 1011.85 1011.88 1012.01 1012.03 1011.70 1011.93 1012.31 1012.69 1013.18 1013.23 1013.64 1014.75 1015.88 1016.84 1017.30 1018.04 1018.83 1019.66 1020.20 1020.73 1020.94 1021.35 1021.57 1021.81 1022.04 1022.23 1022.36 1022.64 1022.91 1023.02 1023.05
1010.36 1010.33 1010.33 1010.50 1010.55 1010.93 1011.40 1011.61 1011.85 1011.84 1011.72 1011.70 1011.55 1011.34 1011.49 1011.47 1011.49 1011.45 1011.53 1011.94 1012.45 1012.85 1012.76 1013.97 1015.22 1016.39 1017.38 1017.83 1018.86 1020.34 1021.01 1021.21 1021.46 1021.73 1021.90 1022.28 1022.54 1022.72 1022.90 1023.12 1023.33 1023.52 1023.44
1010.29 1010.24 1010.14 1010.18 1010.47 1010.74 1010.95 1011.04 1011.27 1011.38 1011.40 1011.23 1011.11 1010.95 1010.92 1011.12 1011.01 1011.06 1011.21 1011.18 1011.29 1012.38 1013.56 1013.37 1014.41 1015.87 1017.06 1017.31 1017.91 1019.72 1021.19 1021.82 1021.82 1022.11 1022.33 1022.54 1022.66 1022.91 1023.19 1023.35 1023.55 1023.66 1023.80
1010.06 1009.90 1009.83 1009.99 1010.09 1010.28 1010.53 1010.83 1010.85 1011.02 1011.18 1011.10 1010.70 1010.62 1010.60 1010.61 1010.66 1010.69 1010.82 1011.21 1010.51 1011.59 1013.03 1013.24 1013.86 1014.73 1015.73 1017.12 1017.23 1018.15 1020.12 1020.80 1021.69 1022.33 1022.60 1022.74 1022.90 1023.14 1023.30 1023.42 1023.66 1023.83 1024.00
1009.63 1009.45 1009.48 1009.42 1009.64 1009.75 1009.96 1010.23 1010.20 1010.02 1010.00 1010.19 1010.03 1009.93 1009.99 1010.05 1010.21 1010.22 1010.40 1010.81 1010.80 1011.21 1012.50 1013.76 1013.60 1014.20 1014.91 1015.97 1017.26 1017.81 1018.32 1019.47 1020.80 1022.32 1022.72 1022.82 1022.96 1023.11 1023.29 1023.53 1023.67 1023.87 1024.01
1009.09 1008.96 1009.15 1009.39 1009.39 1009.35 1009.43 1009.49 1009.41 1009.33 1009.41 1009.54 1009.68 1009.68 1009.77 1009.82 1009.86 1009.91 1009.92 1010.20 1010.60 1010.88 1012.38 1013.42 1013.87 1014.10 1014.64 1015.58 1016.20 1017.84 1018.67 1019.39 1019.96 1021.07 1022.32 1022.81 1023.04 1022.92 1022.99 1023.13 1023.42 1023.72 1023.92
1008.92 1008.67 1008.89 1009.13 1008.96 1008.82 1008.90 1008.75 1008.60 1008.66 1008.82 1009.08 1009.06 1009.05 1009.23 1009.40 1009.69 1009.65 1009.50 1009.82 1010.14 1010.10 1012.39 1013.52 1013.79 1013.84 1014.34 1015.15 1016.13 1017.02 1017.91 1018.83 1019.72 1020.37 1021.47 1022.37 1022.64 1022.80 1022.82 1022.99 1023.28 1023.48 1023.69
Thickness
5724 5727 5728 5728 5728 5727 5726 5727 5726 5727 5729 5729 5730 5731 5730 5728 5728 5728 5728 5728 5728 5728 5728 5729 5729 5729 5730 5730 5731 5730 5731 5731 5730 5729 5729 5728 5728 5726 5725 5723 5722 5722 5722
5725 5724 5725 5725 5726 5725 5723 5724 5724 5724 5725 5726 5726 5727 5727 5726 5725 5725 5725 5726 5726 5726 5726 5726 5727 5727 5727 5727 5727 5728 5727 5727 5727 5726 5726 5725 5725 5724 5722 5721 5721 5721 5720
5723 5721 5721 5722 5722 5722 5722 5721 5721 5722 5722 5722 5723 5723 5724 5724 5724 5723 5723 5723 5724 5724 5724 5724 5724 5724 5724 5724 5724 5724 5723 5723 5723 5723 5723 5723 5722 5721 5720 5718 5719 5718 5717
5718 5718 5717 5717 5718 5718 5718 5717 5717 5718 5718 5718 5719 5720 5721 5721 5722 5722 5721 5721 5722 5721 5722 5721 5721 5722 5722 5721 5721 5721 5720 5720 5719 5720 5720 5720 5719 5719 5717 5716 5716 5715 5715
5710 5711 5712 5713 5714 5714 5714 5715 5715 5714 5714 5714 5715 5717 5717 5718 5719 5719 5719 5719 5719 5719 5719 5719 5718 5718 5718 5719 5718 5717 5717 5716 5717 5717 5717 5716 5716 5716 5715 5713 5712 5711 5710
5701 5704 5707 5710 5711 5711 5711 5712 5712 5711 5710 5710 5711 5713 5714 5715 5716 5717 5716 5717 5716 5715 5715 5715 5714 5715 5715 5715 5715 5714 5714 5713 5713 5713 5713 5712 5712 5712 5710 5709 5708 5708 5707
5696 5699 5703 5705 5705 5705 5707 5707 5708 5708 5707 5707 5709 5710 5711 5711 5712 5713 5714 5713 5713 5712 5712 5711 5710 5711 5712 5711 5711 5711 5711 5710 5709 5709 5709 5708 5708 5707 5705 5705 5705 5705 5705
5693 5695 5697 5698 5698 5700 5701 5702 5703 5704 5704 5704 5705 5706 5708 5708 5709 5709 5710 5711 5710 5709 5708 5707 5706 5707 5708 5707 5707 5707 5706 5706 5706 5705 5704 5704 5704 5702 5701 5701 5703 5703 5702
5685 5688 5692 5692 5693 5694 5696 5698 5699 5699 5699 5700 5701 5702 5703 5705 5705 5705 5707 5708 5707 5706 5705 5705 5703 5703 5704 5703 5703 5703 5702 5702 5702 5700 5700 5700 5700 5699 5698 5699 5700 5700 5700
5678 5680 5683 5686 5686 5688 5689 5692 5693 5694 5695 5696 5696 5697 5698 5700 5701 5701 5702 5702 5703 5703 5702 5702 5700 5699 5699 5699 5699 5699 5698 5697 5697 5696 5697 5697 5696 5696 5696 5696 5697 5698 5697
5670 5672 5674 5677 5680 5681 5683 5684 5687 5689 5690 5690 5691 5692 5694 5695 5696 5696 5698 5698 5697 5698 5698 5698 5697 5696 5695 5694 5694 5694 5693 5693 5693 5693 5693 5694 5693 5693 5692 5693 5694 5693 5693
5665 5667 5668 5669 5671 5674 5676 5677 5679 5681 5683 5684 5686 5686 5688 5689 5690 5690 5693 5692 5692 5693 5693 5693 5694 5693 5692 5688 5688 5689 5690 5690 5690 5689 5690 5691 5689 5689 5689 5689 5689 5689 5688
5660 5660 5663 5663 5664 5666 5669 5670 5670 5671 5674 5676 5678 5681 5681 5682 5683 5684 5685 5687 5686 5687 5689 5689 5689 5691 5687 5685 5683 5685 5685 5685 5686 5685 5685 5686 5685 5685 5686 5684 5684 5683 5682
5652 5655 5657 5657 5656 5657 5659 5661 5661 5663 5665 5667 5669 5672 5672 5675 5676 5677 5679 5681 5681 5681 5681 5685 5684 5685 5684 5681 5680 5680 5681 5681 5681 5681 5682 5681 5681 5681 5681 5680 5679 5678 5676
5643 5646 5650 5649 5647 5647 5648 5650 5651 5652 5654 5657 5659 5664 5665 5668 5668 5669 5672 5673 5674 5675 5675 5677 5679 5678 5679 5676 5675 5676 5676 5676 5675 5677 5678 5676 5676 5677 5678 5677 5673 5673 5671
5637 5638 5640 5640 5639 5635 5634 5636 5638 5639 5641 5644 5646 5650 5654 5657 5659 5663 5665 5666 5666 5669 5669 5669 5673 5673 5671 5671 5670 5670 5669 5669 5669 5672 5673 5673 5671 5672 5673 5672 5670 5668 5667
5628 5630 5631 5630 5628 5626 5623 5623 5625 5626 5628 5629 5631 5633 5638 5642 5647 5651 5657 5660 5660 5662 5662 5661 5663 5665 5664 5663 5664 5664 5662 5661 5663 5665 5666 5666 5666 5665 5666 5665 5665 5662 5661
5622 5622 5623 5622 5620 5617 5615 5612 5611 5612 5614 5616 5617 5619 5621 5628 5632 5640 5646 5650 5653 5655 5654 5654 5653 5656 5657 5658 5657 5656 5656 5654 5657 5657 5660 5660 5659 5659 5657 5658 5657 5657 5656
5617 5616 5616 5614 5612 5609 5603 5600 5595 5593 5596 5601 5604 5606 5608 5614 5620 5623 5632 5641 5644 5650 5650 5648 5645 5650 5649 5649 5649 5648 5648 5646 5648 5648 5651 5652 5652 5652 5651 5649 5648 5649 5649
5610 5608 5605 5603 5599 5593 5587 5580 5575 5572 5574 5580 5587 5591 5594 5600 5610 5616 5623 5630 5631 5639 5645 5642 5638 5638 5642 5640 5639 5637 5637 5636 5639 5639 5641 5642 5643 5643 5644 5643 5641 5640 5640
5603 5600 5596 5590 5586 5577 5567 5560 5554 5553 5553 5557 5566 5574 5579 5586 5593 5603 5614 5618 5616 5626 5640 5638 5632 5631 5630 5633 5629 5622 5621 5623 5628 5630 5631 5632 5633 5634 5634 5634 5633 5632 5632
5593 5590 5587 5582 5573 5563 5558 5554 5549 5545 5544 5544 5547 5555 5563 5569 5578 5587 5599 5611 5620 5618 5617 5630 5627 5622 5622 5627 5628 5619 5611 5613 5618 5620 5622 5624 5625 5625 5624 5624 5624 5624 5623
5585 5583 5578 5572 5565 5559 5554 5547 5543 5537 5533 5532 5537 5540 5546 5553 5560 5569 5582 5595 5610 5608 5607 5618 5621 5624 5623 5617 5625 5623 5611 5617 5614 5611 5613 5614 5616 5616 5616 5616 5615 5614 5613
5580 5576 5571 5567 5558 5553 5548 5541 5536 5533 5530 5527 5528 5530 5536 5543 5550 5557 5569 5580 5591 5603 5597 5597 5610 5614 5617 5617 5612 5616 5618 5615 5606 5602 5603 5605 5607 5609 5609 5608 5607 5606 5605
5575 5571 5564 5556 5550 5546 5542 5538 5533 5527 5522 5517 5515 5518 5525 5533 5540 5547 5557 5570 5581 5591 5589 5582 5590 5601 5607 5610 5612 5605 5605 5604 5605 5604 5597 5596 5597 5600 5601 5601 5600 5598 5597
5567 5566 5557 5549 5547 5541 5537 5533 5529 5525 5519 5512 5510 5512 5520 5526 5532 5538 5549 5560 5572 5588 5581 5572 5577 5588 5598 5601 5601 5602 5601 5600 5598 5597 5591 5586 5592 5591 5593 5592 5591 5591 5590